Flag for El Salvador Weather past 2 weeks in San Salvador, El Salvador

Now
81 °F

Clear.


Feels Like: 82 °F
Forecast: 65 / 91 °F
Wind: 9 mph from Northeast

Location: El Salvador Intl. Airport / Comalapa

Current Time: Mar 1, 2015 at 5:57:29 AM

Latest Report: Mar 1, 2015 at 4:50 AM


Visibility: 10 mi

Pressure: 29.89 "Hg

Humidity: 54%

Dew point: 63 °F

Location of San SalvadorLocation

Historic Weather in San Salvador — Graph

°F

San Salvador temperature yesterday

Maximum temperature yesterday: 91 °F (at 10:50 AM)
Minimum temperature yesterday: 73 °F (at 2:50 AM)
Average temperature yesterday: 83 °F

Past Weeks' High & Low Weather Summary

 TemperatureHumidityPressure
High97 °F (Feb 15, 1:50 PM)94% (Feb 18, 8:50 PM)29.98 "Hg (Feb 18, 8:50 PM)
Low68 °F (Feb 22, 4:50 AM)25% (Feb 15, 1:50 PM)29.53 "Hg (Feb 24, 2:50 PM)
Average82 °F58%29.87 "Hg
* Reported Feb 14 4:50 AM — Mar 1 4:50 AM, San Salvador, Weather by CustomWeather, © 2015

Note: Actual official high and low records may vary slightly from our data, if they occured in-between our weather recording intervals... More about our weather records

Advertising

San Salvador weather history for previous 24 hours

 ConditionsComfort  
Time TempWeatherWind HumidityBarometerVisibility
4:50 AM
Sun, Mar 1
81 °FClear.9 mph54%29.89 "Hg10 mi
3:50 AM79 °FClear.9 mph58%29.89 "Hg10 mi
2:50 AM79 °FClear.9 mph58%29.89 "Hg10 mi
1:50 AM81 °FClear.8 mph58%29.89 "Hg10 mi
12:50 AM77 °FPassing clouds.3 mph74%29.89 "HgN/A
11:50 PM
Sat, Feb 28
81 °FClear.5 mph66%29.92 "Hg10 mi
10:50 PM82 °FClear.6 mph66%29.92 "Hg10 mi
9:50 PM79 °FClear.1 mph79%29.95 "Hg10 mi
8:50 PM79 °FClear.1 mph74%29.92 "Hg10 mi
7:50 PM81 °FPassing clouds.5 mph70%29.89 "HgN/A
6:50 PM82 °FPassing clouds.5 mph66%29.86 "HgN/A
5:50 PM86 °FSunny.5 mph59%29.83 "Hg10 mi
4:50 PM88 °FPassing clouds.5 mph52%29.83 "HgN/A
3:50 PM90 °FPassing clouds.8 mph43%29.83 "HgN/A
2:50 PM90 °FPassing clouds.8 mph52%29.83 "HgN/A
1:50 PM90 °FPassing clouds.10 mph49%29.86 "HgN/A
12:50 PM91 °FPassing clouds.10 mph44%29.86 "HgN/A
11:50 AM91 °FPassing clouds.9 mph44%29.89 "HgN/A
10:50 AM91 °FSunny.6 mph36%29.92 "Hg10 mi
9:50 AM90 °FHot.9 mph38%29.95 "Hg2 mi
8:50 AM88 °FPassing clouds.9 mph40%29.95 "HgN/A
7:50 AM82 °FPassing clouds.6 mph51%29.92 "HgN/A
6:50 AM77 °FSunny.7 mph65%29.89 "Hg10 mi
5:50 AM77 °FClear.8 mph65%29.86 "Hg10 mi
Weather by CustomWeather, © 2015

See weather overviewHow to use our weather pages